Weather History for KIDI - January, 2013

Change the Weather History Date:

Friday, January 18, 2013

  Actual Average Record
Temperature  
Mean Temperature 22 °F -  
Max Temperature 30 °F 34 °F 62 °F (1973)
Min Temperature 15 °F 17 °F -8 °F (1982)
Degree Days  
Heating Degree Days 42    
Moisture  
Dew Point 15 °F    
Average Humidity 69    
Maximum Humidity 100    
Minimum Humidity 55    
Precipitation  
Precipitation 0.00 in - - ()
Sea Level Pressure  
Sea Level Pressure 30.31 in    
Wind  
Wind Speed 11 mph (West)    
Max Wind Speed 21 mph    
Max Gust Speed 29 mph    
Visibility 10 miles    
Events      
Averages and records for this station are not official NWS values.
T = Trace of Precipitation, MM = Missing Value Source: NWS Daily Summary

Daily Weather History Graph

Daily Weather History Graph

Search for Another Location

Airport or City:

Trip Planner

Search our weather history database for the weather conditions in past years. The results will help you decide how hot, cold, wet, or windy it might be!

Date:

Astronomy

Jan. 18, 2013 Rise Set
Actual Time 7:36 AM EST 5:17 PM EST
Civil Twilight 7:06 AM EST 5:47 PM EST
Nautical Twilight 6:33 AM EST 6:21 PM EST
Astronomical Twilight 6:00 AM EST 6:53 PM EST
Moon 11:11 AM EST (1/18) 12:08 AM EST (1/18)
Length of Visible Light 10h 40m
Length of Day
9h 41m
Waxing Crescent, 47% of the Moon is Illuminated
Jan 18
Waxing Crescent
Jan 18
First Quarter
Jan 26
Full
Feb 3
Last Quarter
Feb 10
New

Hourly Weather History & Observations

Time (EST) Temp. Windchill Dew Point Humidity Pressure Visibility Wind Dir Wind Speed Gust Speed Precip Events Conditions
12:15 AM 28.4 °F 18.5 °F 28.4 °F 100% 30.09 in 10.0 mi NW 11.5 mph 17.3 mph N/A   Unknown
12:35 AM 28.4 °F 19.1 °F 28.4 °F 100% 30.09 in 10.0 mi WNW 10.4 mph 18.4 mph N/A   Unknown
12:55 AM 28.4 °F 17.5 °F 28.4 °F 100% 30.11 in 10.0 mi WNW 13.8 mph 20.7 mph N/A   Unknown
1:15 AM 26.6 °F 16.8 °F 26.6 °F 100% 30.11 in 1.2 mi NW 10.4 mph 20.7 mph N/A   Unknown
1:35 AM 26.6 °F 14.3 °F 26.6 °F 100% 30.13 in 7.0 mi NW 16.1 mph 21.9 mph N/A   Unknown
1:55 AM 26.6 °F 13.8 °F 23.0 °F 86% 30.15 in 10.0 mi NNW 17.3 mph 25.3 mph N/A   Unknown
2:15 AM 26.6 °F 13.8 °F 21.2 °F 80% 30.17 in 7.0 mi NNW 17.3 mph 25.3 mph N/A   Unknown
2:35 AM 24.8 °F 15.3 °F 23.0 °F 93% 30.18 in 10.0 mi NNW 9.2 mph 19.6 mph N/A   Unknown
2:55 AM 24.8 °F 16.1 °F 21.2 °F 86% 30.19 in 10.0 mi NW 8.1 mph - N/A   Unknown
3:15 AM 24.8 °F 12.9 °F 21.2 °F 86% 30.21 in 10.0 mi NNW 13.8 mph 20.7 mph N/A   Unknown
3:35 AM 24.8 °F 13.4 °F 21.2 °F 86% 30.22 in 10.0 mi NW 12.7 mph - N/A   Unknown
3:55 AM 23.0 °F 10.1 °F 19.4 °F 86% 30.23 in 7.0 mi NW 15.0 mph 26.5 mph N/A   Unknown
4:15 AM 23.0 °F 8.3 °F 17.6 °F 80% 30.25 in 10.0 mi NW 19.6 mph 28.8 mph N/A   Unknown
4:35 AM 21.2 °F 6.0 °F 15.8 °F 80% 30.27 in 5.0 mi NW 19.6 mph 27.6 mph N/A   Unknown
4:55 AM 19.4 °F 3.2 °F 15.8 °F 86% 30.28 in 10.0 mi NW 20.7 mph 28.8 mph N/A   Unknown
5:15 AM 19.4 °F 5.5 °F 14.0 °F 80% 30.30 in 10.0 mi NW 15.0 mph 24.2 mph N/A   Unknown
5:35 AM 19.4 °F 5.5 °F 12.2 °F 74% 30.31 in 10.0 mi NW 15.0 mph 25.3 mph N/A   Unknown
5:55 AM 19.4 °F 5.0 °F 10.4 °F 68% 30.33 in 10.0 mi NW 16.1 mph 27.6 mph N/A   Unknown
6:15 AM 19.4 °F 4.5 °F 10.4 °F 68% 30.35 in 10.0 mi NNW 17.3 mph 25.3 mph N/A   Unknown
6:35 AM 17.6 °F 7.3 °F 10.4 °F 73% 30.36 in 10.0 mi NW 8.1 mph - N/A   Unknown
6:55 AM 17.6 °F 4.3 °F 10.4 °F 73% 30.37 in 10.0 mi NW 12.7 mph 20.7 mph N/A   Unknown
7:15 AM 17.6 °F 5.0 °F 8.6 °F 68% 30.38 in 10.0 mi NW 11.5 mph 21.9 mph N/A   Unknown
7:35 AM 15.8 °F 8.6 °F 8.6 °F 73% 30.39 in 10.0 mi NW 4.6 mph - N/A   Unknown
7:55 AM 15.8 °F 6.1 °F 8.6 °F 73% 30.38 in 10.0 mi NW 6.9 mph - N/A   Unknown
8:15 AM 17.6 °F 10.7 °F 8.6 °F 68% 30.38 in 10.0 mi NW 4.6 mph - N/A   Unknown
8:35 AM 17.6 °F 12.3 °F 8.6 °F 68% 30.39 in 10.0 mi NW 3.5 mph - N/A   Unknown
8:55 AM 17.6 °F 7.3 °F 8.6 °F 68% 30.40 in 10.0 mi NW 8.1 mph - N/A   Unknown
9:15 AM 17.6 °F 10.7 °F 8.6 °F 68% 30.41 in 10.0 mi NW 4.6 mph - N/A   Unknown
9:35 AM 19.4 °F 7.2 °F 8.6 °F 63% 30.43 in 10.0 mi NW 11.5 mph - N/A   Unknown
9:55 AM 19.4 °F 7.9 °F 8.6 °F 63% 30.43 in 10.0 mi NW 10.4 mph - N/A   Unknown
10:15 AM 19.4 °F 9.5 °F 8.6 °F 63% 30.43 in 10.0 mi NW 8.1 mph - N/A   Unknown
10:35 AM 21.2 °F 11.7 °F 8.6 °F 58% 30.43 in 10.0 mi NW 8.1 mph - N/A   Unknown
10:55 AM 21.2 °F 10.9 °F 8.6 °F 58% 30.42 in 10.0 mi WNW 9.2 mph - N/A   Unknown
11:15 AM 21.2 °F 12.6 °F 10.4 °F 63% 30.42 in 10.0 mi NW 6.9 mph - N/A   Unknown
11:35 AM 21.2 °F 11.7 °F 10.4 °F 63% 30.42 in 10.0 mi NW 8.1 mph - N/A   Unknown
11:55 AM 21.2 °F 11.7 °F 10.4 °F 63% 30.41 in 10.0 mi West 8.1 mph - N/A   Unknown
12:15 PM 23.0 °F 15.8 °F 10.4 °F 59% 30.40 in 10.0 mi WNW 5.8 mph - N/A   Unknown
12:35 PM 23.0 °F 13.9 °F 12.2 °F 63% 30.39 in 10.0 mi West 8.1 mph - N/A   Unknown
12:55 PM 23.0 °F 13.1 °F 10.4 °F 59% 30.39 in 10.0 mi West 9.2 mph - N/A   Unknown
1:15 PM 24.8 °F 16.1 °F 12.2 °F 59% 30.38 in 10.0 mi WSW 8.1 mph - N/A   Unknown
1:35 PM 24.8 °F - 12.2 °F 59% 30.38 in 10.0 mi Calm Calm - N/A   Unknown
1:55 PM 24.8 °F 16.1 °F 12.2 °F 59% 30.38 in 10.0 mi West 8.1 mph - N/A   Unknown
2:15 PM 24.8 °F 15.3 °F 12.2 °F 59% 30.37 in 10.0 mi West 9.2 mph - N/A   Unknown
2:35 PM 26.6 °F 17.5 °F 14.0 °F 59% 30.36 in 10.0 mi West 9.2 mph - N/A   Unknown
2:55 PM 26.6 °F 19.1 °F 12.2 °F 55% 30.36 in 10.0 mi WSW 6.9 mph - N/A   Unknown
3:15 PM 26.6 °F 17.5 °F 14.0 °F 59% 30.36 in 10.0 mi West 9.2 mph - N/A   Unknown
3:35 PM 26.6 °F 19.1 °F 14.0 °F 59% 30.36 in 10.0 mi WSW 6.9 mph - N/A   Unknown
3:55 PM 26.6 °F 17.5 °F 14.0 °F 59% 30.35 in 10.0 mi SW 9.2 mph - N/A   Unknown
4:15 PM 26.6 °F 16.8 °F 15.8 °F 64% 30.35 in 10.0 mi SW 10.4 mph - N/A   Unknown
4:35 PM 26.6 °F 17.5 °F 14.0 °F 59% 30.34 in 10.0 mi WSW 9.2 mph - N/A   Unknown
4:55 PM 26.6 °F 16.8 °F 15.8 °F 64% 30.34 in 10.0 mi SW 10.4 mph - N/A   Unknown
5:15 PM 26.6 °F 19.1 °F 15.8 °F 64% 30.34 in 10.0 mi SW 6.9 mph - N/A   Unknown
5:35 PM 26.6 °F 18.2 °F 15.8 °F 64% 30.34 in 10.0 mi SW 8.1 mph - N/A   Unknown
5:55 PM 26.6 °F 20.0 °F 15.8 °F 64% 30.32 in 10.0 mi SSW 5.8 mph - N/A   Unknown
6:15 PM 26.6 °F 19.1 °F 15.8 °F 64% 30.31 in 10.0 mi SSW 6.9 mph - N/A   Unknown
6:35 PM 26.6 °F 20.0 °F 15.8 °F 64% 30.31 in 10.0 mi SW 5.8 mph - N/A   Unknown
6:55 PM 26.6 °F 21.2 °F 15.8 °F 64% 30.32 in 10.0 mi SW 4.6 mph - N/A   Unknown
7:15 PM 26.6 °F 18.2 °F 15.8 °F 64% 30.31 in 10.0 mi SW 8.1 mph - N/A   Unknown
7:35 PM 26.6 °F 17.5 °F 15.8 °F 64% 30.31 in 10.0 mi SW 9.2 mph - N/A   Unknown
7:55 PM 26.6 °F 18.2 °F 17.6 °F 69% 30.31 in 10.0 mi SW 8.1 mph - N/A   Unknown
8:15 PM 26.6 °F 18.2 °F 17.6 °F 69% 30.30 in 10.0 mi SW 8.1 mph - N/A   Unknown
8:35 PM 26.6 °F 19.1 °F 17.6 °F 69% 30.30 in 10.0 mi SW 6.9 mph - N/A   Unknown
8:55 PM 26.6 °F 16.8 °F 17.6 °F 69% 30.29 in 10.0 mi SW 10.4 mph - N/A   Unknown
9:15 PM 26.6 °F 16.8 °F 17.6 °F 69% 30.28 in 10.0 mi SW 10.4 mph - N/A   Unknown
9:35 PM 28.4 °F 18.0 °F 17.6 °F 64% 30.28 in 10.0 mi SW 12.7 mph - N/A   Unknown
9:55 PM 28.4 °F 19.1 °F 17.6 °F 64% 30.27 in 10.0 mi SW 10.4 mph 16.1 mph N/A   Unknown
10:15 PM 28.4 °F 19.1 °F 15.8 °F 59% 30.27 in 10.0 mi SW 10.4 mph 19.6 mph N/A   Unknown
10:35 PM 28.4 °F 19.7 °F 15.8 °F 59% 30.26 in 10.0 mi WSW 9.2 mph 18.4 mph N/A   Unknown
10:55 PM 28.4 °F 18.0 °F 15.8 °F 59% 30.24 in 10.0 mi WSW 12.7 mph 16.1 mph N/A   Unknown
11:15 PM 30.2 °F 19.3 °F 15.8 °F 55% 30.24 in 10.0 mi WSW 15.0 mph 20.7 mph N/A   Unknown
11:35 PM 30.2 °F 19.8 °F 15.8 °F 55% 30.23 in 10.0 mi WSW 13.8 mph 20.7 mph N/A   Unknown
11:55 PM 30.2 °F 19.8 °F 15.8 °F 55% 30.23 in 10.0 mi SW 13.8 mph 18.4 mph N/A   Unknown